Wind_Speed
8 7 8 9 10 12 13 13 15 11 5 7 6 4 8 8 5 5 4 4 2 5 8 9 11 12 12 14 11 8 8 10 12 11 11 11 10 9 8 8 8 9 9 12 15 14 14 14 14 13 13 13 14 14 15 16 15 15 16 17 16 16 14 14 15 15 15 13 12 13 15 13 10 11 12 10 10 11 11 13 12 12 14 13 12 13
8 8 10 12 13 12 11 13 14 8 3 7 8 7 8 8 9 6 5 4 4 4 8 9 11 13 12 12 12 8 9 11 14 14 13 14 13 8 6 8 7 6 7 10 13 13 14 15 15 14 13 14 14 14 14 14 14 14 16 18 18 16 14 13 14 14 12 13 14 13 14 13 10 11 12 10 11 11 11 14 15 14 16 15 14 13
8 9 12 13 13 11 8 8 10 6 6 8 8 8 8 7 10 6 6 5 6 4 7 10 10 12 12 12 14 12 10 11 14 15 14 15 13 10 9 10 10 9 8 8 9 11 15 16 15 13 13 12 12 13 13 12 13 13 14 18 19 16 14 12 12 13 12 15 17 14 13 12 8 9 11 9 10 12 13 15 17 17 17 16 15 13
7 9 14 15 11 9 6 5 7 7 7 8 8 8 8 9 10 6 5 7 7 5 7 10 9 9 10 11 13 14 11 11 14 16 16 15 13 15 15 12 12 12 11 9 7 4 8 14 15 13 12 12 11 11 11 10 10 11 14 18 17 15 14 13 14 15 14 17 18 14 12 11 9 8 10 9 10 12 14 14 16 16 15 14 13 13
10 6 9 13 9 8 9 8 9 7 7 9 10 10 9 11 11 5 4 4 5 8 10 10 8 7 10 12 13 13 12 12 12 14 15 15 14 14 14 13 13 13 11 10 8 3 9 12 14 14 13 13 12 11 11 12 11 11 13 16 15 15 15 14 15 15 17 19 16 12 10 9 9 9 9 8 7 10 12 14 16 15 13 12 10 10
12 3 3 7 8 9 11 9 10 9 7 9 11 13 13 13 11 6 7 6 6 9 10 12 9 7 11 16 15 13 13 14 12 13 15 14 14 13 12 14 12 12 10 9 9 9 13 15 13 14 13 13 13 12 11 12 12 12 13 14 15 16 17 16 14 14 17 18 14 11 11 9 9 8 8 7 7 11 14 15 16 14 12 10 9 8
9 6 7 8 8 10 13 10 12 11 8 8 9 12 13 11 10 10 12 10 7 8 5 9 9 6 9 12 12 12 13 13 12 14 15 13 13 14 12 13 12 11 10 9 10 13 15 16 14 13 14 14 12 13 12 11 11 12 13 15 16 17 18 16 14 14 14 13 12 11 11 9 7 6 7 8 9 12 13 13 12 11 11 10 9 9
8 7 7 10 10 10 11 9 11 11 9 8 4 5 8 9 11 11 12 10 8 9 4 6 9 9 9 7 7 10 12 12 14 15 14 14 13 14 14 12 16 14 12 10 9 12 14 13 13 13 13 13 12 16 18 18 18 16 14 16 15 15 16 13 13 15 13 13 14 13 11 10 9 9 10 11 11 10 9 10 10 9 10 10 9 9
10 11 8 10 11 9 9 9 11 11 11 7 2 2 6 8 10 10 10 9 9 10 7 9 11 8 8 8 7 10 12 13 13 12 11 11 11 11 14 11 14 12 11 10 9 11 12 12 13 13 13 13 15 18 20 20 21 20 17 16 14 14 17 16 16 17 16 16 17 16 14 14 12 11 12 11 10 10 9 9 10 9 10 10 9 9
9 11 10 11 10 8 9 9 9 10 10 8 3 5 6 7 9 9 9 9 8 10 10 11 11 8 8 8 8 9 10 9 7 6 5 5 7 8 10 8 11 11 8 10 11 11 11 12 13 14 14 14 16 17 17 17 20 23 20 17 16 18 21 21 20 21 20 18 17 17 16 17 16 13 12 12 11 11 10 10 10 10 10 10 9 9
5 5 6 8 9 9 9 9 9 10 10 6 3 6 8 8 9 8 8 8 8 9 10 14 14 10 8 5 2 1 3 2 3 4 4 3 6 7 9 8 9 11 9 10 11 11 12 13 13 14 14 15 15 16 17 17 19 22 21 21 23 23 21 19 17 19 19 16 15 16 15 17 18 15 14 15 15 13 12 11 11 10 9 9 9 9
9 8 5 7 10 10 10 11 11 11 11 7 5 7 8 7 7 7 7 7 8 9 10 14 16 14 10 2 2 4 5 5 3 3 3 3 5 6 7 7 7 10 10 11 10 10 12 12 13 14 15 15 16 16 17 17 19 20 19 21 26 26 22 18 16 15 15 14 13 13 13 14 15 15 14 16 16 14 13 13 11 10 10 10 9 9
11 9 8 9 12 12 11 9 9 9 9 10 8 8 8 7 7 7 7 7 8 9 10 12 12 11 6 2 4 4 5 4 2 1 2 4 5 4 4 5 6 9 10 11 10 10 10 10 11 14 15 16 16 16 17 18 18 18 19 21 24 26 24 21 17 15 15 15 14 13 13 14 14 13 14 15 15 14 13 12 11 10 10 10 9 9
9 10 12 11 10 12 13 9 8 8 9 11 9 8 9 7 7 7 7 7 8 8 11 9 6 7 5 3 5 5 5 3 2 2 1 2 3 4 5 5 5 6 9 9 9 9 9 9 11 13 15 16 16 17 18 17 18 18 19 21 22 23 25 23 20 19 18 16 15 14 15 15 13 13 15 14 14 13 12 11 10 10 9 9 9 9
10 9 12 13 10 12 15 13 10 9 9 11 10 9 9 7 7 6 6 7 7 7 9 9 6 7 6 3 4 5 4 3 2 3 2 0 1 4 6 7 6 6 8 8 8 8 8 10 13 14 15 15 15 17 17 16 17 17 17 20 20 20 22 22 22 23 19 16 16 15 15 16 14 15 15 13 13 12 11 11 10 9 9 9 9 9
12 9 10 14 12 14 16 15 13 10 9 9 10 10 9 8 7 5 5 5 5 5 6 8 6 2 3 6 5 4 4 3 2 3 4 3 4 5 6 7 8 7 8 7 7 8 8 11 14 14 15 15 15 17 16 15 15 15 16 18 19 19 20 21 24 24 20 17 17 15 16 18 17 17 16 13 12 11 11 12 11 10 10 10 10 10
10 8 8 14 15 15 15 14 14 12 7 6 9 10 9 8 8 7 7 5 5 6 6 6 5 4 6 6 6 6 5 5 4 4 5 6 6 6 6 6 6 5 4 5 6 7 8 10 11 13 15 15 15 17 16 15 15 15 15 17 19 20 20 20 22 23 21 18 17 17 19 19 19 18 16 14 14 13 13 12 11 11 11 11 11 11
7 6 8 13 14 13 13 14 16 14 10 5 6 7 8 9 9 6 6 6 6 8 7 8 10 6 5 3 5 6 5 5 5 4 4 5 6 5 5 5 6 6 5 4 6 7 8 9 10 12 14 14 15 16 16 16 17 15 15 17 19 20 21 20 19 20 20 20 21 22 22 21 20 18 15 15 15 15 14 13 12 12 12 11 11 10
6 6 7 11 12 12 12 12 13 15 16 12 6 4 5 8 8 6 6 6 7 8 6 9 12 5 3 3 4 5 4 5 5 5 4 4 5 5 5 4 5 7 7 6 7 8 9 10 11 13 13 13 15 16 17 16 15 15 15 16 18 19 20 20 18 17 18 18 18 20 21 20 18 16 15 16 15 15 15 13 12 12 11 11 10 10
5 6 6 9 11 11 10 9 9 11 15 15 10 7 6 6 6 6 6 6 7 8 7 9 9 2 4 3 4 4 4 5 6 6 5 5 5 6 7 6 4 4 4 3 5 6 7 9 11 12 11 11 13 14 13 13 13 15 15 15 16 16 16 18 17 15 15 15 14 15 18 18 17 16 16 16 15 15 14 13 12 12 10 10 10 10
5 6 5 7 10 10 8 8 10 10 11 12 10 9 8 7 6 5 4 5 8 6 5 8 6 1 2 2 3 5 4 4 6 7 5 6 7 7 9 8 6 6 6 6 4 3 1 2 4 7 8 9 8 5 8 9 10 10 9 8 10 10 10 13 15 13 12 13 13 14 17 18 16 16 16 16 15 15 14 13 12 11 10 10 10 12
5 6 6 6 7 9 9 11 14 14 11 11 10 10 10 8 7 7 6 6 7 6 6 7 3 2 1 2 2 3 4 4 4 7 6 6 8 9 10 11 10 9 10 11 9 6 5 4 2 1 2 4 3 7 8 7 7 3 1 2 4 5 5 6 8 10 11 10 11 14 16 17 16 15 15 15 15 14 14 13 12 11 10 9 10 12
6 5 8 9 7 8 9 10 12 11 10 10 10 10 10 9 8 8 6 6 6 6 8 8 3 4 1 3 5 5 7 7 6 6 7 7 8 9 10 11 11 10 10 11 10 8 9 11 9 6 3 2 6 8 4 4 2 2 4 3 1 1 4 7 7 7 10 10 10 13 15 14 15 15 15 14 14 14 14 13 12 11 10 9 10 12
6 5 8 9 7 7 7 7 7 7 8 10 9 8 9 9 8 7 5 5 5 3 5 7 4 4 3 3 6 6 6 7 8 7 7 7 6 8 10 11 10 10 10 9 8 8 10 14 13 8 5 2 8 9 2 1 3 6 9 7 3 5 9 12 9 7 9 10 9 11 13 10 11 15 15 15 15 14 15 14 13 12 10 9 10 11
5 6 8 8 7 8 8 7 9 9 9 8 8 10 11 10 9 8 4 3 4 5 7 7 2 4 5 4 6 6 5 6 7 7 7 6 6 8 10 9 8 8 9 9 9 8 8 11 11 10 8 7 8 9 7 7 7 7 9 6 2 8 12 12 11 8 8 10 9 10 10 7 8 11 12 14 15 15 15 14 13 12 11 10 10 10
5 5 8 8 8 9 6 5 5 5 7 10 10 11 9 9 11 10 5 3 5 9 11 8 0 4 5 7 8 7 6 6 7 6 7 7 7 8 8 7 7 7 8 9 8 7 7 7 9 11 13 12 10 9 9 8 6 6 6 1 3 7 8 6 7 5 4 10 12 12 13 13 13 12 10 11 14 14 14 14 13 13 12 10 10 10
5 5 7 8 7 6 3 3 6 7 6 9 11 11 8 7 10 10 7 7 4 5 6 1 6 8 8 9 8 7 6 7 7 6 7 7 7 8 8 7 7 7 7 8 7 6 6 7 8 11 13 14 13 13 12 10 8 8 7 3 3 3 1 1 2 5 9 13 16 16 16 18 19 15 10 11 13 13 13 13 12 13 12 11 10 10
5 6 9 9 7 6 3 2 6 7 5 7 7 9 9 7 8 10 10 8 3 3 3 4 7 7 8 9 8 6 6 6 7 7 7 8 8 8 8 8 8 8 8 8 7 6 7 7 8 10 12 13 14 15 15 13 11 10 9 8 5 2 1 2 5 12 14 14 17 18 16 18 19 15 12 13 14 12 12 12 12 11 11 11 10 10
2 5 8 9 6 5 3 1 4 5 2 2 3 5 6 6 8 11 11 6 2 2 1 5 7 4 6 9 8 7 6 6 7 7 8 8 9 9 9 9 9 9 8 9 8 8 8 9 9 11 12 13 14 15 14 14 13 12 12 11 8 5 3 3 7 13 15 12 13 14 13 13 16 16 15 15 15 13 11 12 12 11 11 11 10 9
2 2 5 7 9 5 3 1 1 5 5 2 2 1 1 3 4 4 3 4 3 1 4 10 12 8 7 8 8 8 7 7 7 7 9 9 10 10 10 9 9 9 9 9 8 8 9 9 10 11 13 13 13 14 14 14 14 14 14 14 13 10 7 6 7 10 11 10 10 11 12 11 12 13 13 13 14 14 13 12 11 10 11 11 10 8
2 2 5 6 8 7 4 3 2 3 7 3 4 5 4 1 1 4 5 5 3 3 8 12 12 9 6 6 8 8 7 8 8 8 9 9 10 11 10 9 9 9 9 9 8 8 8 9 11 13 14 15 15 15 15 14 14 14 15 16 16 15 11 9 9 8 8 9 10 11 13 13 12 10 9 9 11 13 15 15 14 12 11 11 11 9
0 3 4 4 7 6 6 7 6 3 7 6 3 6 7 4 3 4 5 6 5 4 7 7 5 5 5 6 8 8 8 9 9 9 9 8 9 10 10 9 9 9 9 9 9 9 9 10 12 13 15 15 16 16 15 13 14 15 16 16 15 15 15 15 14 12 10 9 10 11 13 13 13 12 10 9 10 13 16 17 17 16 13 13 13 11
2 3 3 2 4 5 4 5 6 5 6 6 1 5 6 5 3 3 4 6 7 2 4 3 3 7 9 8 8 9 9 9 9 8 8 8 9 9 10 9 9 9 9 9 9 10 10 11 12 14 15 15 16 17 16 16 15 14 15 16 15 15 16 17 18 17 14 11 11 11 11 12 13 13 12 10 10 13 15 16 17 16 14 12 12 11
4 4 3 1 2 3 3 3 4 6 6 2 2 4 5 5 4 2 5 7 8 6 5 6 8 11 11 9 9 9 10 10 10 10 9 8 8 8 10 10 9 9 10 10 10 10 11 12 13 14 15 16 16 16 16 17 17 15 14 16 17 18 17 17 19 20 19 16 13 10 11 12 13 13 12 10 10 12 14 15 15 15 13 11 10 10
5 4 3 2 3 1 3 4 5 5 3 2 4 3 4 4 4 6 7 8 8 7 9 10 10 10 10 9 10 11 12 12 12 12 12 10 8 8 9 9 9 10 10 10 10 11 13 13 13 15 16 16 16 16 15 15 15 15 16 17 18 18 17 18 20 21 21 20 17 13 11 12 12 12 12 12 11 10 10 13 14 12 8 7 7 7
5 4 2 2 2 1 3 5 4 2 2 3 4 5 4 3 3 4 5 7 9 7 8 11 10 10 11 11 11 11 13 14 13 13 12 11 10 10 9 9 10 10 10 11 12 13 14 14 14 15 16 16 17 17 16 15 15 16 18 17 18 18 17 19 21 21 20 20 19 17 13 11 11 12 13 13 12 11 10 13 15 12 7 5 6 7
4 4 1 1 3 4 3 2 2 3 4 3 3 4 4 3 4 3 2 5 7 5 6 10 10 11 11 11 11 11 11 11 11 10 11 11 11 11 11 11 11 11 11 13 13 14 14 15 16 17 17 18 19 18 16 16 15 17 18 18 18 18 18 19 20 19 19 18 18 17 15 14 14 13 14 13 11 11 11 12 13 12 9 8 8 8
6 5 3 2 2 4 3 3 4 5 3 4 5 4 3 1 3 5 2 4 5 4 6 9 10 11 11 10 11 10 8 7 7 6 8 10 10 10 11 13 13 13 13 13 14 14 15 15 16 18 19 20 20 18 16 16 16 18 19 19 18 18 19 20 19 18 17 16 16 16 16 15 15 14 13 13 11 10 10 10 10 10 9 10 9 9
7 7 4 3 3 3 3 4 4 3 3 5 6 5 4 2 1 3 2 3 4 4 6 8 9 10 9 9 7 4 4 5 5 4 6 8 9 9 10 11 13 13 14 15 15 16 15 15 17 20 21 21 19 17 16 16 18 19 19 18 17 18 18 18 17 17 16 16 16 16 16 16 16 15 14 13 12 10 9 9 9 8 9 11 10 10
6 6 5 5 5 4 5 3 2 3 4 7 7 6 5 3 2 3 2 2 4 4 6 8 9 9 7 6 5 3 2 5 6 5 6 8 9 10 10 10 11 12 13 14 15 16 16 18 20 20 20 19 17 15 15 15 17 18 17 16 17 18 17 15 14 15 15 15 16 16 16 17 17 16 15 13 13 12 10 9 9 8 7 8 10 11
3 3 4 4 3 4 6 2 4 4 3 8 9 6 5 4 3 1 0 2 4 6 8 8 8 8 7 6 6 5 6 7 8 8 8 9 10 10 11 11 11 11 11 12 12 12 13 16 17 17 16 17 15 14 13 14 15 15 15 15 16 16 15 14 13 14 14 14 15 16 16 16 16 16 15 13 13 13 13 12 11 10 10 9 9 11
1 1 2 3 2 3 3 2 5 5 5 11 11 5 5 4 1 2 2 1 5 8 9 9 9 9 9 9 8 7 9 11 10 9 8 9 9 10 11 11 10 10 11 11 11 10 10 12 14 14 14 14 14 13 13 13 14 14 14 15 15 13 12 12 13 13 13 14 14 14 15 15 15 14 14 13 12 12 12 11 10 10 10 10 10 10
3 2 1 1 2 1 1 2 3 4 6 14 11 4 5 5 2 2 2 4 8 9 9 9 9 10 11 12 11 11 12 12 10 8 8 8 9 10 10 10 9 9 10 11 11 10 10 11 13 13 13 12 12 12 12 13 13 13 13 14 13 11 11 11 11 11 12 13 13 13 13 14 14 14 13 12 11 10 9 9 8 8 8 8 8 8
6 4 2 3 4 2 2 4 3 2 6 11 8 4 5 6 4 3 1 7 8 7 8 9 9 10 12 12 13 13 13 12 10 8 8 7 8 10 10 10 10 10 10 10 11 10 10 11 12 12 12 11 11 11 11 12 13 13 13 13 12 11 11 10 10 10 10 11 11 12 13 13 13 13 13 12 11 10 10 9 8 7 7 5 6 6
6 5 6 6 5 5 6 5 4 4 5 7 8 6 6 8 8 6 4 7 7 7 9 9 10 12 13 13 13 12 11 11 10 9 7 6 7 7 8 9 9 8 8 10 10 9 9 10 10 11 11 11 11 11 11 11 12 12 12 11 11 11 11 10 10 10 9 9 9 10 12 12 13 13 13 12 11 11 11 10 9 9 8 7 7 6
5 6 7 6 6 8 9 8 6 6 8 8 9 8 9 9 9 8 7 7 8 10 10 10 12 13 12 12 12 11 11 11 10 9 8 7 6 6 6 6 6 6 7 8 9 8 8 9 9 10 10 10 10 10 10 10 11 11 10 9 10 10 10 10 10 10 9 10 9 9 9 10 11 12 11 11 11 11 10 10 10 9 9 8 7 7
6 7 7 6 5 5 6 9 8 8 9 9 9 10 11 11 10 8 7 7 11 13 13 13 14 13 12 11 11 11 12 11 10 10 8 7 7 6 6 6 5 6 7 7 7 7 7 8 9 9 10 10 10 10 10 10 10 10 9 9 9 9 9 9 9 9 9 9 9 10 10 11 11 10 10 10 10 10 10 10 10 10 10 9 8 7
7 8 9 11 10 8 7 10 11 11 11 10 9 9 9 10 11 10 7 9 12 13 13 14 14 12 11 11 11 11 11 11 10 10 8 7 7 6 6 6 5 5 5 6 7 7 8 9 9 9 9 10 10 10 10 10 10 10 9 9 9 8 8 8 8 9 9 9 9 9 10 10 11 11 11 11 11 11 11 11 11 11 12 12 10 8
7 8 8 10 11 9 9 10 10 11 13 12 10 10 10 10 12 12 11 12 14 13 12 14 13 12 11 11 11 11 10 9 9 9 8 7 7 7 6 5 5 5 5 6 6 7 8 8 9 9 9 9 9 10 10 10 10 9 9 9 8 8 8 8 8 8 8 8 9 9 9 9 9 10 11 12 13 14 14 12 11 11 12 12 12 11
8 8 7 7 8 7 7 7 8 9 10 9 10 12 12 12 12 13 13 13 13 12 12 13 14 15 15 13 11 9 8 7 8 7 7 7 7 6 5 5 5 5 5 5 5 6 7 7 8 8 8 8 8 8 9 8 8 8 8 8 7 6 6 6 7 7 8 8 8 8 8 8 8 7 8 9 10 12 13 13 13 12 11 11 12 12
7 7 7 7 8 9 10 10 10 10 10 11 11 12 12 12 12 13 13 13 12 11 11 11 11 12 11 11 11 9 7 6 6 6 7 7 7 6 6 6 6 6 5 5 6 6 6 6 7 7 8 8 8 7 7 7 7 7 7 7 6 5 5 5 6 7 8 8 8 7 7 8 7 7 7 6 6 7 9 10 13 15 14 13 13 13
Wind_Direction
197 211 207 217 219 211 216 222 239 262 316 306 280 244 253 259 247 225 187 162 199 257 249 242 251 250 244 249 238 183 178 222 226 212 213 215 208 210 192 175 203 213 203 185 173 172 164 163 167 155 151 149 143 147 151 154 154 155 157 155 159 166 169 173 176 178 183 189 189 193 204 207 206 205 204 195 187 192 193 182 179 184 183 186 195 187
199 222 220 218 226 224 220 223 241 273 302 265 270 263 249 250 251 225 171 186 206 235 256 249 246 250 246 248 249 209 186 217 227 220 220 215 206 207 188 174 201 236 229 189 163 166 169 167 166 157 155 158 154 151 153 154 149 150 158 161 164 170 174 176 177 178 180 188 192 192 199 202 203 202 198 193 183 181 190 185 180 186 189 188 189 184
205 229 231 224 227 230 235 231 226 236 248 248 254 258 253 245 250 229 155 198 227 227 254 253 249 250 241 238 248 236 208 217 227 221 226 224 200 189 206 196 188 208 230 208 174 175 177 171 165 159 156 159 159 157 151 145 147 151 162 169 169 171 176 180 181 179 178 192 196 195 200 199 195 196 192 191 185 178 184 181 176 183 187 186 183 176
212 222 226 225 221 215 220 227 214 215 234 243 244 245 246 244 249 237 188 208 226 237 260 267 264 258 250 238 242 242 218 211 224 221 225 231 207 193 203 198 185 196 218 211 181 185 202 182 170 164 160 158 163 163 145 138 154 165 175 178 173 172 179 188 189 181 183 198 201 199 201 199 194 190 186 192 186 178 183 180 172 175 180 182 181 178
239 229 215 214 194 191 207 205 212 225 227 227 236 247 251 251 251 240 220 220 223 236 245 262 270 254 246 239 236 237 219 212 222 224 224 230 226 208 187 182 193 196 206 208 159 146 244 207 174 172 167 163 168 160 143 146 166 183 190 187 184 184 183 189 195 185 182 192 195 193 191 193 194 187 185 195 187 177 183 181 174 169 172 179 181 181
246 220 147 199 179 196 218 211 211 223 237 226 221 234 248 262 268 261 260 263 252 247 228 223 244 248 233 232 227 224 218 211 216 228 228 226 231 227 187 170 192 193 191 210 163 161 231 221 186 179 173 175 174 153 143 153 169 187 193 187 181 179 179 186 196 187 179 183 182 179 181 186 186 184 192 193 187 190 187 180 173 164 167 178 172 170
236 175 161 211 206 212 225 222 213 211 237 244 220 222 233 253 268 257 258 260 251 268 246 207 235 264 246 233 219 220 221 204 207 227 230 227 227 232 214 167 171 186 181 204 185 173 212 214 191 182 180 188 169 136 140 153 171 197 197 183 172 170 178 186 189 183 177 179 178 174 179 187 181 178 197 199 199 201 188 171 165 160 165 170 161 158
223 194 187 216 218 221 226 221 211 205 226 244 222 220 224 235 251 247 250 255 251 266 260 200 234 264 267 251 210 220 231 214 213 219 219 230 226 227 233 186 165 178 175 180 191 184 198 197 184 180 182 185 154 142 161 161 168 192 193 181 169 168 184 185 178 181 178 177 179 173 172 185 190 186 192 196 199 197 180 163 161 163 163 159 155 153
200 212 207 210 215 219 221 219 209 204 226 242 182 215 244 248 252 249 244 245 249 256 249 222 229 247 261 257 222 213 225 226 220 209 204 228 235 231 242 209 160 167 172 165 185 194 188 178 177 177 173 166 147 156 174 163 161 175 183 184 168 161 180 180 174 180 178 173 174 169 169 180 188 190 186 182 189 191 180 169 161 158 156 151 150 150
187 213 213 206 216 222 217 219 208 196 222 251 236 218 240 254 252 249 248 245 241 245 252 243 232 241 257 259 244 217 218 227 211 187 189 229 258 258 256 225 150 149 176 175 182 188 177 170 174 173 168 160 148 156 172 164 160 167 172 175 165 166 181 180 174 178 177 173 171 167 174 180 177 180 182 179 189 194 181 167 159 154 152 149 146 142
172 168 212 216 222 231 224 222 216 202 215 248 263 230 229 235 239 241 245 250 248 238 244 249 244 247 252 260 292 203 168 157 146 174 195 217 254 256 256 238 158 150 177 176 175 177 169 170 171 168 167 164 156 157 164 161 161 166 164 159 159 168 182 183 179 178 174 172 171 167 174 181 173 172 181 182 187 187 174 163 157 152 149 144 140 136
202 167 201 224 225 234 232 226 220 209 214 228 234 236 234 224 222 230 229 233 248 245 240 247 243 238 240 241 59 77 83 85 122 201 212 223 246 236 236 228 160 155 172 167 168 170 166 168 169 170 171 170 169 166 164 161 161 166 167 162 163 169 182 189 183 177 170 165 166 166 174 180 168 168 183 186 183 178 168 160 154 151 148 139 137 134
218 207 208 205 210 224 228 222 211 201 212 225 223 228 235 224 214 225 226 219 233 244 248 256 246 232 230 138 118 111 78 76 79 303 251 242 243 212 205 209 170 164 166 165 170 168 168 174 173 177 175 175 178 174 170 167 165 169 172 173 171 172 179 182 178 175 171 163 161 166 177 176 165 178 194 187 178 171 163 160 154 151 149 142 140 139
215 213 208 200 197 209 220 218 203 196 206 216 215 219 225 222 218 223 231 230 231 237 244 251 248 235 227 121 111 97 67 57 63 43 315 261 242 182 178 186 179 176 172 175 178 174 180 183 181 185 182 178 176 172 173 172 171 172 173 176 176 174 175 174 173 177 172 163 161 167 173 168 169 195 201 183 173 169 163 160 154 149 148 145 142 141
220 212 201 203 189 186 208 223 220 207 205 212 218 225 228 228 231 233 236 239 241 244 234 220 225 249 237 145 89 77 67 46 62 86 88 70 180 173 174 164 161 182 193 194 190 186 192 192 190 188 184 181 173 169 174 178 177 177 177 181 179 172 171 170 171 174 171 165 166 170 175 170 176 198 196 176 171 170 160 154 151 149 148 146 145 143
233 230 196 202 201 188 199 220 231 229 213 205 212 226 233 231 232 244 265 269 274 275 241 211 222 261 130 126 119 110 100 86 90 108 121 143 158 168 174 166 165 184 198 202 197 189 188 187 185 179 179 183 178 175 180 183 183 182 183 185 178 168 169 170 169 168 167 167 167 171 175 171 177 191 186 171 167 162 153 150 149 149 146 143 142 141
231 237 192 194 206 203 201 210 224 237 235 202 207 221 227 229 232 242 251 251 261 269 258 235 226 158 135 148 151 146 130 120 127 122 126 142 151 162 170 170 171 172 179 194 187 176 174 177 176 176 180 184 181 180 183 186 186 186 188 188 178 170 171 173 169 166 166 166 168 173 175 175 178 181 175 162 156 152 147 147 146 141 139 139 138 138
231 245 199 191 203 205 207 213 215 225 239 233 218 222 219 223 233 248 249 230 225 243 247 242 237 205 171 179 157 152 137 122 134 130 118 124 135 150 156 155 153 141 149 192 189 177 172 170 173 181 184 184 181 181 184 188 187 185 189 190 182 174 173 174 170 168 171 169 170 176 179 178 174 166 161 155 150 147 146 146 143 140 141 142 142 140
232 251 207 198 210 200 200 219 215 212 223 232 244 245 235 231 221 214 232 234 231 239 241 240 241 228 99 113 155 170 147 122 130 132 122 121 136 140 127 125 138 138 152 181 184 183 180 176 178 185 187 183 183 187 188 187 185 182 186 193 191 182 175 175 172 168 169 167 167 172 172 169 161 153 153 154 149 145 146 146 142 142 146 145 144 144
217 251 215 203 217 198 187 212 218 203 207 222 240 241 236 250 239 218 225 234 236 238 239 241 238 210 65 98 147 155 146 143 140 133 134 136 131 113 102 107 124 133 145 162 167 180 180 175 177 181 186 186 189 191 179 173 182 187 189 194 196 189 177 175 176 173 170 165 162 164 162 159 155 151 150 150 149 147 148 149 147 148 151 150 149 151
201 236 226 207 211 198 184 203 216 208 196 206 226 228 222 231 237 238 245 253 255 251 242 247 239 149 48 47 128 137 131 147 144 132 128 117 99 71 64 65 56 43 31 36 31 335 295 155 164 169 175 184 190 165 134 164 203 200 192 198 204 208 197 182 177 176 173 167 163 165 164 158 152 148 146 145 147 149 149 148 148 151 153 155 154 155
205 225 230 219 209 206 205 205 212 217 211 205 210 218 223 226 229 232 228 230 245 253 249 245 214 112 25 17 68 112 101 91 111 121 115 96 81 66 54 49 44 37 28 33 30 360 344 344 342 74 155 165 104 70 105 176 229 233 161 203 216 233 228 209 195 184 179 175 169 167 166 160 151 145 144 146 146 149 152 150 149 151 151 155 158 158
213 232 231 218 216 232 226 208 210 222 229 227 224 222 224 226 235 242 236 226 233 254 269 255 190 116 50 42 62 67 72 64 60 88 97 79 71 73 65 53 47 45 37 31 26 15 2 351 352 360 307 201 100 90 136 199 236 30 61 98 140 227 212 222 245 220 188 182 176 171 169 161 152 145 142 146 148 150 154 154 152 151 151 157 162 162
208 234 236 222 223 242 227 195 203 224 233 234 231 227 229 231 235 240 247 262 261 278 298 278 228 134 109 78 78 77 81 72 57 63 77 75 75 75 68 59 52 49 46 36 28 27 8 349 351 355 310 315 97 108 140 10 46 54 60 76 143 216 209 201 213 221 196 180 166 161 163 156 145 144 145 151 154 151 154 157 154 152 155 161 165 166
207 217 224 225 222 221 208 192 200 208 218 232 232 229 234 239 237 230 228 289 282 244 242 260 265 112 131 140 116 107 104 87 65 55 62 65 68 67 63 62 57 46 40 34 34 35 16 350 350 356 347 8 73 105 99 62 46 60 74 79 183 213 211 198 194 209 201 178 157 135 137 137 136 144 150 156 156 152 154 157 155 154 158 163 165 167
233 232 225 228 226 219 211 212 228 224 218 222 222 224 233 242 246 243 226 234 247 240 246 256 89 107 137 148 139 130 122 104 84 71 66 63 62 63 61 60 62 57 43 38 41 38 24 12 9 10 11 21 44 70 81 77 57 62 90 87 274 226 213 199 193 199 131 134 141 131 134 148 154 155 159 159 154 154 157 158 157 157 159 164 166 166
239 253 244 244 252 257 254 273 304 315 273 238 218 207 214 241 264 271 249 234 240 252 266 248 141 161 163 151 145 137 127 119 106 89 76 70 64 63 64 64 68 69 60 52 50 42 35 37 33 26 24 29 42 52 59 70 74 68 75 56 336 273 229 45 149 146 110 121 139 143 149 158 160 155 155 157 153 154 158 159 161 162 160 164 166 163
246 244 240 245 263 274 267 287 307 318 312 288 249 211 207 223 259 268 251 247 274 270 270 90 119 162 161 146 145 134 123 121 111 97 83 74 69 68 71 73 71 69 66 60 53 48 46 44 37 33 33 36 45 54 54 56 65 68 68 58 33 7 7 36 119 133 133 140 150 151 150 155 158 156 153 153 150 151 158 161 162 162 161 163 164 164
286 254 243 236 238 255 252 249 324 324 316 273 234 215 201 204 235 250 249 262 312 277 223 120 133 156 138 132 131 117 106 100 97 95 88 79 75 75 74 73 72 71 70 65 57 54 48 42 39 36 37 42 45 51 55 52 54 59 59 55 53 65 99 106 116 127 135 144 150 149 143 145 155 158 152 147 145 144 148 156 162 163 160 160 159 161
38 304 284 246 225 226 247 217 351 304 271 183 121 338 203 187 237 268 292 316 322 60 119 131 133 116 98 109 108 97 94 95 92 86 84 82 80 79 74 71 73 72 71 67 60 56 49 45 49 47 45 47 48 52 56 55 55 56 52 51 54 62 86 111 113 119 132 139 139 138 132 128 140 151 149 146 147 142 134 135 146 151 152 154 154 156
53 328 333 284 238 210 209 219 186 269 268 225 94 29 2 9 6 15 19 1 350 101 116 121 117 99 87 103 106 104 101 99 94 81 77 75 77 80 76 70 71 69 66 66 61 56 49 45 48 49 49 47 47 51 54 55 56 54 52 54 54 56 71 94 99 98 112 129 133 133 132 129 132 146 153 150 148 144 139 134 131 124 122 129 134 135
297 291 327 303 261 225 205 217 207 224 272 248 148 39 1 343 13 26 26 21 29 104 140 142 128 121 130 120 111 112 105 95 88 80 77 69 66 75 75 69 68 67 65 64 59 50 43 42 42 44 48 48 47 48 46 49 54 50 52 59 59 60 68 79 85 82 86 109 118 122 134 138 135 141 149 150 151 154 152 148 141 129 115 112 121 129
174 263 288 290 266 242 202 208 208 218 261 253 165 39 8 346 345 15 45 30 21 34 174 171 115 120 132 129 119 111 96 84 78 74 75 74 67 67 68 65 61 62 63 60 56 50 45 45 45 43 45 46 49 51 48 49 54 51 51 60 66 68 66 69 76 76 73 85 98 106 122 130 129 134 140 144 152 155 155 153 147 137 125 117 120 130
167 220 246 252 259 229 157 132 182 208 227 231 56 20 14 10 353 28 59 33 23 42 77 90 104 122 131 128 119 108 92 81 76 69 67 72 74 69 64 61 56 54 58 57 55 53 51 52 51 48 47 44 46 54 56 54 54 55 57 63 67 67 60 59 68 69 66 69 80 96 118 125 125 131 136 139 148 151 150 151 144 133 130 130 124 120
179 202 214 220 259 255 132 158 194 210 216 77 60 28 22 30 44 75 69 39 30 58 85 95 106 117 116 110 108 106 98 88 78 69 63 61 67 73 69 64 59 55 56 60 60 53 47 47 48 47 47 43 42 49 55 56 57 62 66 65 62 61 59 59 62 61 60 63 66 74 96 116 126 136 141 143 149 150 145 152 156 151 144 140 135 130
194 185 193 212 220 201 189 200 202 164 92 77 54 32 23 23 52 86 91 51 29 44 94 104 103 104 106 108 109 108 103 92 76 64 60 59 60 67 70 69 66 64 63 64 61 51 41 37 39 44 46 46 45 45 47 50 56 65 68 67 64 61 60 60 57 54 55 59 61 62 66 81 102 123 135 137 145 152 149 155 165 171 173 156 144 146
168 146 116 154 194 211 203 154 122 135 134 105 48 34 27 14 360 351 64 72 37 30 98 115 116 116 117 117 117 121 117 96 75 59 57 58 59 62 68 69 66 65 67 63 57 51 46 40 39 42 47 47 44 43 44 47 54 63 66 67 66 62 60 59 55 52 53 57 61 62 61 66 78 96 112 117 125 139 143 150 158 165 174 173 164 154
152 134 120 142 214 239 215 150 155 173 146 74 58 57 45 18 330 324 328 97 59 49 104 124 125 123 128 129 130 141 134 91 70 58 53 58 63 62 63 64 60 57 58 54 50 49 46 42 41 44 47 47 43 40 43 49 55 59 59 59 60 60 58 55 51 50 52 54 57 59 60 64 69 76 88 93 96 109 122 130 139 152 166 168 161 153
162 146 145 195 227 257 243 210 193 168 107 58 38 27 19 22 332 303 248 123 70 70 110 125 127 129 134 130 130 165 168 111 95 73 51 57 65 63 61 61 59 59 58 54 53 51 46 47 50 48 45 44 39 36 41 50 55 57 55 53 53 55 56 52 47 46 49 52 54 57 59 61 63 65 71 75 77 85 98 106 110 130 155 155 144 135
184 173 185 232 240 260 263 236 106 83 72 37 7 356 9 10 306 270 217 107 77 99 118 121 128 133 125 105 77 29 58 112 116 95 69 69 69 65 66 65 60 61 63 62 60 57 53 54 55 48 40 35 31 31 39 49 55 57 56 53 51 51 50 48 45 45 47 49 51 53 54 55 56 59 60 66 75 78 79 86 91 95 115 131 127 117
170 184 203 235 248 266 257 205 96 90 44 7 348 346 1 333 271 264 39 77 88 107 115 110 108 105 92 85 80 58 58 78 88 84 76 75 73 70 70 69 64 61 61 61 62 64 63 62 59 51 41 35 32 32 39 48 54 55 55 55 53 51 47 43 44 46 47 48 49 49 50 49 50 53 54 61 75 78 73 76 83 82 80 87 100 106
80 244 220 235 290 305 259 165 112 109 39 355 339 343 358 329 233 56 11 133 117 112 115 106 93 88 85 85 90 94 86 77 71 66 59 56 61 67 70 73 76 76 71 65 60 60 64 67 65 59 50 41 37 36 39 49 55 53 53 53 50 49 49 45 44 45 45 48 48 49 51 50 49 51 52 55 66 72 69 69 71 76 82 86 93 103
3 306 120 64 350 345 133 120 115 111 25 354 342 351 16 11 36 2 354 110 114 115 114 101 91 97 97 93 93 97 95 87 77 68 60 48 45 49 54 61 65 63 67 72 66 57 54 57 58 56 51 44 40 39 40 48 54 52 51 48 42 40 45 48 48 47 45 46 47 47 50 52 51 52 53 53 58 66 67 64 63 69 84 99 104 107
360 330 81 52 349 335 85 68 50 43 8 1 7 36 33 20 360 321 68 111 115 117 107 93 92 100 102 103 104 100 96 94 90 82 73 61 52 45 42 48 49 39 37 49 56 54 54 55 54 54 53 48 45 42 41 46 51 49 46 42 36 35 41 45 49 52 49 49 50 51 52 53 54 56 57 54 54 58 58 57 59 61 63 75 94 103
40 51 85 74 46 52 63 59 50 36 25 28 37 42 38 33 20 14 68 108 115 109 102 102 107 106 102 104 106 104 104 105 104 100 93 84 73 61 51 51 48 36 30 35 40 42 48 53 54 53 53 49 45 45 45 45 48 49 44 37 34 36 40 42 45 51 53 53 56 58 60 61 59 59 57 54 53 54 51 49 50 51 50 51 59 70
99 104 100 93 102 93 67 51 52 52 49 51 50 48 50 49 38 27 40 73 89 91 97 108 112 110 110 111 109 109 114 117 118 120 119 115 112 104 92 77 57 41 37 35 31 30 36 47 50 48 49 47 43 44 46 45 46 48 44 40 40 39 39 42 46 49 53 55 58 60 65 68 67 62 59 59 60 58 54 51 50 48 47 50 54 59
86 97 92 85 108 105 55 43 49 53 56 59 61 62 60 57 52 38 30 58 82 91 101 111 112 111 112 113 114 117 120 120 119 119 119 121 120 111 102 90 67 48 39 32 28 28 35 43 44 41 43 42 38 40 44 44 44 43 40 41 43 42 42 44 49 53 55 56 60 63 65 68 68 67 64 61 62 63 60 56 57 53 44 38 38 47
83 86 81 74 77 84 84 80 74 67 64 63 63 67 65 65 71 68 54 62 77 87 98 106 112 118 120 118 119 121 123 125 125 124 125 128 125 117 108 99 86 66 47 36 34 38 45 48 45 40 37 34 31 33 38 40 40 38 36 38 42 45 49 51 54 61 63 60 62 64 67 69 69 70 67 62 60 62 59 54 55 55 51 45 41 40
96 95 95 90 91 99 106 102 91 77 67 60 62 73 80 85 88 83 71 67 69 69 72 77 81 90 101 110 115 117 118 122 125 127 129 128 127 129 125 118 112 96 74 57 49 49 52 51 46 41 38 33 30 31 32 34 35 32 33 36 39 44 53 55 57 62 64 64 65 66 68 72 74 77 78 72 69 68 66 62 61 61 58 57 59 59
94 104 110 105 98 97 92 85 83 80 73 67 74 84 87 88 87 81 74 70 67 64 62 63 63 64 67 76 87 95 104 113 117 118 117 113 114 116 107 94 88 82 76 75 70 64 60 55 47 40 35 32 34 36 37 35 34 33 32 34 38 46 54 58 64 66 62 60 60 61 66 72 73 79 87 88 87 84 78 68 60 60 63 66 66 66
87 100 104 96 91 95 95 90 87 89 90 94 98 99 95 90 86 84 83 82 82 83 82 78 76 72 68 71 76 76 74 79 87 93 94 89 85 81 73 63 58 52 47 51 55 50 48 51 51 44 36 32 32 38 43 42 39 40 41 40 44 54 58 65 75 78 76 70 59 52 62 72 70 69 74 82 95 106 104 87 65 55 56 63 66 65
Height
755 762 763 761 754 749 747 744 741 734 737 743 740 740 742 740 738 733 735 737 737 748 748 743 744 739 735 730 723 725 731 737 737 737 743 744 744 744 746 753 757 759 759 758 762 761 759 762 763 765 767 769 770 771 773 775 777 778 780 782 783 785 787 788 790 792 793 794 796 798 799 801 803 803 804 807 808 810 812 814 814 815 816 818 820 820
755 764 757 749 745 741 741 742 742 743 749 752 748 746 744 743 740 730 734 738 737 749 750 741 744 741 735 731 724 723 732 739 737 736 738 737 740 741 745 752 756 759 759 755 757 759 760 762 763 764 766 768 770 771 774 775 777 779 781 783 784 785 787 788 789 791 793 794 795 797 799 802 803 803 804 806 809 811 813 814 815 816 817 818 819 820
762 761 750 741 739 738 740 742 745 751 755 755 751 751 748 742 737 730 733 739 738 748 750 742 743 741 732 730 727 723 728 735 732 731 733 731 736 743 745 749 754 758 757 755 755 757 759 760 761 763 764 767 769 771 774 776 779 781 782 784 785 786 787 788 789 791 793 794 794 797 800 802 804 804 805 807 809 812 814 814 815 817 818 818 819 819
762 752 741 736 736 740 747 748 750 755 757 756 753 752 750 740 738 740 740 740 740 744 747 743 742 740 732 729 728 723 723 728 727 725 726 725 730 738 740 742 749 753 754 755 758 762 763 760 760 762 763 766 768 771 774 778 780 782 783 784 785 786 787 787 788 791 793 794 795 798 800 802 803 804 805 807 810 812 813 814 815 816 817 818 818 818
748 735 729 732 737 744 752 754 756 759 758 754 751 749 747 738 735 739 742 742 743 744 743 747 752 745 736 735 731 723 721 725 726 725 725 723 723 728 734 741 745 748 751 753 757 768 772 764 759 760 762 764 768 771 775 778 780 782 784 785 786 787 788 788 789 791 794 795 797 799 800 802 803 803 804 807 810 812 813 813 814 816 817 817 817 817
740 730 729 736 742 747 752 754 754 758 756 751 748 745 743 739 735 738 743 746 752 753 739 742 763 755 732 730 730 723 722 725 727 727 726 725 722 723 731 742 745 745 749 751 755 768 775 767 760 759 761 763 767 771 777 780 780 782 786 786 787 789 790 790 791 792 795 796 799 800 801 802 802 803 804 805 809 813 813 813 813 815 815 816 816 816
736 731 735 742 746 749 751 751 748 751 757 753 742 736 738 741 743 746 747 749 758 755 734 732 757 757 732 722 721 720 721 723 727 729 726 724 724 723 726 737 746 746 748 752 755 765 772 766 759 759 760 763 767 772 778 783 782 783 785 786 787 789 789 790 791 793 795 798 799 801 802 803 803 803 803 805 809 812 811 811 811 812 813 814 815 815
734 736 741 743 746 750 750 749 744 743 755 751 735 733 740 743 746 747 747 750 749 744 736 733 745 756 744 725 718 720 723 725 727 728 726 724 723 722 722 729 739 743 746 751 755 760 764 761 757 759 761 763 767 771 774 779 782 782 783 784 785 787 789 790 792 794 795 797 798 799 802 803 803 803 804 806 808 810 809 808 809 810 811 813 814 815
732 740 744 744 748 749 745 742 737 740 750 743 732 738 742 741 743 742 743 747 742 744 750 739 736 755 753 728 717 721 726 729 726 724 726 725 723 723 722 724 732 738 741 746 754 758 759 759 758 759 761 763 766 769 771 775 779 781 782 784 784 786 787 786 788 790 790 792 793 796 800 801 802 803 804 805 808 809 808 807 808 809 810 812 814 815
730 735 736 740 746 744 738 734 731 739 745 736 733 740 741 741 742 740 743 742 742 753 758 741 734 754 755 731 720 724 727 729 727 726 728 728 727 727 724 725 733 739 741 744 752 757 758 758 759 758 760 763 765 768 771 774 776 779 782 783 784 784 782 780 782 785 786 788 791 794 797 798 800 802 802 804 807 807 807 806 807 808 810 811 813 814
727 729 731 736 740 736 733 732 731 736 739 735 738 742 743 743 740 742 742 739 750 761 754 739 732 745 754 740 729 730 730 730 731 733 733 731 732 732 729 728 733 740 744 746 752 755 757 758 758 758 760 761 765 767 770 772 774 777 780 781 783 783 780 779 781 783 786 789 792 794 796 797 799 800 802 805 806 806 805 805 806 808 809 810 812 814
728 734 737 734 733 732 733 734 731 731 733 738 743 745 748 747 744 749 747 748 766 765 746 733 726 735 752 748 738 736 732 731 736 736 735 736 735 733 732 731 735 742 746 748 753 755 755 757 757 758 759 760 763 765 767 770 772 775 778 779 782 783 781 781 783 785 788 791 793 795 795 797 798 800 803 805 805 804 804 805 806 807 808 810 812 813
732 733 733 732 731 730 736 738 734 734 736 740 742 747 756 759 761 767 763 760 767 758 738 725 725 733 742 742 739 736 734 735 736 736 735 737 736 735 736 736 738 743 746 748 752 754 754 755 756 757 758 759 761 763 765 768 770 773 775 777 779 781 781 782 783 785 787 790 792 793 795 796 797 800 804 805 805 804 804 804 805 806 807 809 811 813
741 735 728 732 733 728 733 739 741 741 740 742 742 747 757 763 774 782 772 762 759 750 733 721 729 740 740 742 740 736 738 738 736 736 736 736 737 738 740 741 743 745 748 749 750 751 752 753 755 756 757 758 759 762 764 766 768 770 772 774 776 778 780 782 784 784 785 788 790 791 793 794 798 803 805 804 804 804 803 804 804 806 807 809 811 813
746 745 732 730 731 728 730 730 730 731 734 737 732 735 745 750 764 775 767 763 760 749 736 730 740 745 744 750 745 737 740 739 737 739 738 740 740 741 742 744 748 751 751 750 748 748 750 751 753 755 756 757 758 760 763 764 766 768 770 772 774 775 778 781 784 784 785 787 789 790 792 794 799 805 805 803 804 803 803 804 805 806 808 810 812 813
741 741 724 720 721 722 728 724 717 723 732 730 724 733 741 735 742 754 754 754 757 755 745 737 738 737 741 751 745 740 744 742 742 742 741 746 745 744 746 746 749 753 751 749 748 747 749 751 752 754 755 757 757 759 761 763 765 767 769 771 772 773 775 778 781 783 785 787 789 790 791 794 799 803 803 802 803 803 803 805 806 808 809 811 813 814
742 737 718 717 720 715 721 722 717 724 731 727 728 735 730 720 728 746 752 747 754 766 754 735 736 741 747 753 746 744 747 746 747 747 745 748 747 746 748 747 748 749 748 748 748 748 751 752 752 753 755 756 756 758 760 762 764 766 768 769 770 771 773 775 778 782 785 787 789 790 792 795 799 801 801 801 802 803 804 806 807 809 810 812 814 815
737 739 719 716 724 716 713 718 717 718 722 727 733 726 718 719 724 737 753 754 759 769 754 735 736 741 748 757 753 748 750 751 752 752 751 751 751 752 750 748 748 749 750 751 749 750 751 752 753 754 755 755 756 758 759 761 763 765 767 768 768 769 770 773 775 778 783 786 789 792 793 795 797 799 799 800 801 803 805 807 808 809 811 812 814 816
729 742 727 713 721 717 710 718 723 718 715 722 724 715 720 736 739 741 755 762 764 767 757 739 730 735 750 760 758 753 753 755 757 757 758 759 758 756 754 754 753 751 752 752 751 752 751 751 753 753 754 755 756 757 758 761 764 765 767 767 767 768 769 772 774 776 779 782 786 789 791 792 794 795 797 799 801 803 805 807 808 810 812 813 814 816
726 743 738 717 713 714 715 723 730 725 718 717 719 716 720 731 737 738 742 747 754 762 760 745 737 750 762 759 757 757 753 753 759 762 762 762 760 755 755 758 758 756 756 754 753 753 750 750 751 752 754 755 756 757 759 762 764 765 766 767 768 769 770 772 774 776 778 780 783 786 788 789 791 794 796 798 801 803 805 807 809 811 812 813 815 816
725 740 742 725 713 717 724 724 722 721 719 722 727 729 726 724 726 732 737 739 740 749 755 749 752 765 762 753 756 756 753 753 757 762 763 761 760 759 759 761 763 763 762 760 760 760 756 754 753 754 754 754 756 760 763 766 766 767 768 770 772 774 775 775 776 777 779 780 782 784 787 789 790 793 795 798 801 803 805 807 809 812 813 814 815 817
729 736 740 735 726 724 722 713 708 709 711 717 724 726 725 724 727 738 749 742 733 742 750 746 761 775 759 749 753 750 754 758 755 758 764 763 764 766 766 766 767 769 768 766 768 768 765 762 759 758 758 757 761 766 769 770 769 770 771 773 776 779 780 779 779 780 780 782 783 784 787 789 790 793 796 798 801 803 806 809 811 813 814 815 816 817
726 731 737 737 730 722 713 704 703 705 704 708 712 713 715 719 725 738 751 747 737 745 743 729 749 773 761 750 756 758 761 764 761 762 767 770 770 769 770 771 770 771 772 770 770 770 768 767 764 764 764 764 767 771 772 771 771 772 773 774 777 780 781 781 781 782 783 783 785 785 787 790 791 793 796 799 802 804 807 810 812 813 815 816 817 818
725 734 738 735 730 723 713 705 705 707 709 714 712 709 712 715 718 728 741 743 739 747 751 742 751 769 765 757 763 766 765 767 768 769 770 773 773 770 771 773 772 773 774 773 772 770 771 770 768 768 768 767 770 773 773 772 773 774 774 776 777 780 780 778 779 783 785 785 786 786 789 792 793 794 796 799 802 804 807 809 811 813 814 816 818 819
731 738 739 740 743 741 733 726 720 715 716 719 716 711 711 712 717 726 734 742 745 746 750 753 757 766 767 763 765 767 768 772 774 774 774 775 773 771 773 774 775 776 776 775 774 773 775 775 772 771 769 769 773 775 774 774 775 775 776 778 778 778 778 776 777 782 788 789 788 788 791 794 796 797 798 800 802 804 806 809 811 812 814 816 818 819
735 735 734 740 747 749 753 750 740 729 722 718 716 716 717 717 721 727 732 746 755 746 737 741 755 768 770 766 767 769 771 777 779 778 778 777 775 775 776 777 778 780 780 780 779 779 781 780 777 776 774 774 776 776 776 777 778 778 779 779 779 779 778 778 779 783 790 792 791 791 792 794 796 798 800 801 803 805 807 809 811 813 815 817 818 819
738 737 734 739 742 743 749 749 740 735 731 724 718 720 725 726 726 729 733 741 747 745 743 745 754 770 774 769 768 770 772 778 781 781 781 780 780 781 782 783 783 783 784 784 784 785 785 783 781 782 782 781 780 779 778 779 780 780 780 780 781 781 780 780 781 784 790 792 791 791 792 793 795 797 800 802 804 806 808 810 812 814 815 817 818 820
744 746 739 740 745 740 737 738 735 734 739 740 736 731 730 732 737 743 742 736 736 746 755 753 754 764 769 767 770 773 775 779 781 783 785 785 785 787 788 788 788 787 788 789 790 790 788 786 785 785 786 785 783 782 782 782 783 782 782 781 782 782 782 781 782 785 788 790 790 791 791 793 795 797 800 803 805 807 809 811 813 814 816 817 818 820
755 756 743 741 746 741 735 736 736 737 741 748 750 743 736 739 748 751 743 734 737 748 757 760 762 764 764 767 773 778 781 784 785 786 787 788 789 790 791 792 792 792 793 794 795 794 792 791 790 788 788 787 786 787 787 787 786 785 785 784 784 784 784 783 784 785 788 791 792 792 792 794 796 799 802 804 806 808 809 811 814 815 816 817 819 820
757 763 756 749 747 745 742 739 740 745 745 743 745 743 739 742 747 746 742 741 743 748 754 761 768 772 773 777 781 784 787 789 789 788 789 790 791 792 794 796 796 796 797 798 798 798 797 797 795 793 792 791 791 791 791 791 790 789 789 788 788 787 786 786 787 788 790 792 794 794 794 795 798 801 803 805 807 809 810 812 814 815 816 818 819 821
755 762 761 757 753 749 748 743 742 752 754 746 746 749 745 744 746 748 750 750 750 753 757 762 772 783 787 785 787 790 791 791 793 793 794 794 794 795 798 800 801 800 800 801 801 801 801 800 798 797 796 795 795 794 794 794 793 793 792 791 790 789 788 789 790 790 792 794 795 795 794 795 798 802 805 808 809 810 811 812 813 815 817 818 819 822
756 758 756 760 762 755 749 747 745 751 756 751 752 760 759 752 750 754 757 757 759 764 766 764 768 780 788 789 791 793 793 794 797 798 800 802 801 801 802 803 804 804 804 804 804 804 803 802 800 800 798 798 797 797 797 797 796 796 795 793 793 792 791 791 792 793 795 797 797 796 794 795 799 803 807 810 811 812 812 813 813 815 817 818 820 822
756 759 758 764 770 762 751 748 749 754 761 763 766 771 770 763 758 758 761 764 764 765 767 765 766 777 787 791 794 797 799 801 803 803 805 807 807 807 807 806 807 806 806 806 807 807 806 805 803 803 801 800 800 800 800 799 798 798 797 797 797 796 795 795 795 796 797 798 797 796 796 798 800 804 808 811 813 814 814 814 815 816 818 820 821 823
756 761 763 770 774 764 753 754 758 762 769 776 781 780 776 772 767 764 768 772 768 765 768 771 775 783 788 792 798 803 806 808 809 809 809 809 810 812 812 811 811 810 809 809 809 810 809 808 807 806 804 803 803 803 803 802 801 801 800 800 800 799 799 799 799 798 798 798 798 798 799 800 802 805 808 811 814 816 816 816 817 818 819 821 822 824
757 761 765 770 769 762 762 765 768 771 776 783 786 783 779 777 773 772 778 780 774 772 774 778 785 790 792 798 804 807 809 812 812 813 813 813 814 814 815 816 816 815 814 814 813 813 812 811 810 808 807 806 806 805 805 805 805 804 804 803 803 803 804 803 802 801 801 801 802 803 803 804 805 807 809 812 815 817 817 817 818 820 821 822 823 824
755 759 763 766 766 769 771 769 771 780 788 789 786 784 783 781 777 779 784 786 785 781 780 786 794 798 800 805 809 810 812 813 814 816 818 818 817 817 818 819 819 819 819 818 817 816 815 814 813 811 810 809 808 808 808 808 808 807 807 807 806 807 807 806 806 806 806 805 806 807 808 808 808 809 811 813 815 816 817 818 819 821 822 823 824 825
752 759 766 769 769 769 767 769 779 787 790 791 790 791 794 794 791 787 784 788 792 788 786 793 800 803 806 808 810 811 810 811 816 822 823 821 822 822 821 821 821 822 821 821 820 819 818 818 816 814 813 812 812 812 812 812 812 811 809 810 810 810 810 810 810 810 810 811 811 812 811 811 812 812 813 815 815 816 817 818 819 822 823 824 825 826
751 760 769 774 772 767 767 774 778 778 783 791 793 793 797 797 798 795 788 789 795 792 791 797 802 805 808 808 810 810 806 809 821 827 827 825 825 825 824 824 824 824 824 823 822 822 821 821 819 818 817 816 816 816 816 816 815 814 813 813 813 813 813 813 814 814 814 814 815 815 815 815 815 816 816 817 817 818 820 820 821 823 824 825 826 827
751 758 766 772 771 769 770 770 766 770 787 799 796 792 792 793 796 795 788 790 798 797 796 800 805 808 810 808 810 809 805 811 825 831 830 829 828 828 828 827 827 828 827 826 825 825 824 824 823 821 820 820 820 820 820 819 818 817 817 817 818 817 817 817 818 818 818 818 818 818 818 818 818 818 819 820 820 821 822 822 823 824 825 825 826 827
754 754 761 766 765 766 770 771 774 786 799 803 799 794 791 792 795 791 786 793 803 802 801 804 807 810 811 811 814 815 812 816 827 833 832 831 831 831 831 831 831 831 830 829 829 828 828 827 826 825 824 824 825 824 824 823 822 821 821 822 821 821 821 821 821 821 821 820 820 820 820 821 821 821 822 822 823 823 824 824 825 826 826 827 827 828
757 755 756 761 761 765 769 770 782 800 807 804 802 797 793 794 792 788 792 802 807 805 805 808 810 812 815 815 819 825 826 827 831 834 834 833 833 834 834 834 835 834 833 833 832 831 831 830 829 829 829 829 829 828 827 826 825 825 825 825 825 824 825 825 824 823 823 823 822 823 823 823 823 824 824 825 825 825 826 826 827 827 827 828 829 829
766 764 757 758 763 766 769 769 780 801 811 807 802 797 795 795 794 797 804 807 806 807 810 812 814 818 821 822 825 830 833 834 835 836 837 836 836 836 836 837 837 837 836 835 834 834 834 832 831 832 832 832 832 831 830 829 828 828 828 828 828 828 829 828 827 826 826 825 825 825 825 825 826 826 827 828 828 828 829 829 829 829 829 830 831 831
779 773 764 771 775 769 768 772 782 799 811 809 802 800 802 803 805 809 809 805 805 810 812 814 819 822 824 828 831 833 835 837 839 840 841 840 839 838 839 840 840 840 838 836 837 836 835 834 834 833 833 834 834 834 833 832 831 831 831 831 831 831 831 830 830 829 828 828 828 827 827 828 828 828 829 830 831 831 832 832 832 832 832 832 832 833
787 779 775 789 793 779 778 792 804 813 817 813 809 810 813 814 813 810 808 807 809 811 812 818 824 825 827 830 833 835 838 840 842 843 844 844 842 842 842 843 843 842 840 839 838 837 836 837 836 835 836 836 836 836 835 834 834 833 833 833 833 833 833 832 832 832 831 831 831 830 830 830 830 830 831 832 833 833 834 834 834 834 834 834 834 834
796 792 789 801 807 801 804 816 820 821 819 816 816 818 818 817 814 810 809 809 809 810 814 821 826 829 830 832 834 838 841 842 844 846 846 846 846 845 845 845 845 845 843 841 840 838 837 838 838 838 838 838 838 838 837 836 836 836 835 835 835 835 834 834 834 834 834 834 833 832 832 832 832 833 833 834 835 835 835 836 836 836 836 836 836 836
795 794 795 803 809 810 816 821 821 820 821 820 822 822 821 820 818 815 813 811 810 813 818 823 827 831 833 834 836 839 841 843 844 845 846 847 848 847 847 847 847 846 845 843 842 840 839 839 840 840 839 839 839 838 838 838 838 838 838 837 837 836 836 836 835 835 835 836 835 835 835 834 834 835 835 836 837 837 838 838 838 838 838 838 838 839
791 789 793 800 804 808 819 825 824 823 824 824 824 825 824 824 823 821 819 817 816 819 823 826 830 832 834 836 838 839 841 842 843 844 846 847 848 848 848 848 848 847 847 845 843 842 841 841 841 841 841 841 841 840 840 840 839 839 839 839 838 838 838 837 837 837 837 837 837 837 836 836 836 837 838 839 839 840 840 841 841 841 841 841 841 840
791 791 796 804 809 816 824 828 825 825 827 827 827 828 829 828 828 826 824 823 823 825 827 829 830 832 834 837 838 839 841 842 843 845 846 847 848 849 848 849 849 848 848 846 845 844 843 843 843 843 843 843 842 842 841 841 841 841 841 840 840 840 839 839 839 839 839 839 839 838 838 838 838 839 840 841 841 841 842 843 843 843 843 843 843 842
788 794 802 809 815 821 823 820 819 823 829 830 830 831 831 831 830 829 829 828 828 830 831 831 832 834 835 836 837 839 840 841 842 843 844 845 847 848 848 848 848 848 848 848 847 846 846 845 845 846 846 845 845 844 843 842 842 842 842 842 842 841 841 841 840 840 840 840 839 839 839 840 840 841 842 843 843 843 844 845 845 846 846 845 845 844
792 800 806 809 815 821 821 816 815 820 829 834 834 834 833 832 831 831 832 833 833 835 836 836 837 838 839 839 840 840 840 841 841 841 841 843 845 846 846 846 847 847 848 848 847 847 847 846 847 847 847 847 846 846 845 845 845 844 844 844 843 843 843 842 842 841 841 841 841 841 841 841 842 842 843 844 845 845 846 846 847 847 847 847 847 846
798 801 803 806 813 818 819 817 817 821 828 832 833 834 834 834 833 834 835 836 838 839 840 841 842 843 844 845 845 845 844 843 843 842 843 844 845 846 847 847 848 848 848 847 847 847 847 847 847 848 848 848 848 847 847 847 846 846 846 846 845 845 845 844 843 843 844 844 844 843 843 843 844 844 844 844 845 845 846 847 847 848 848 848 848 848